TimeMST,TemperatureF,Dew PointF,Humidity,Sea Level PressureIn,VisibilityMPH,Wind Direction,Wind SpeedMPH,Gust SpeedMPH,PrecipitationIn,Events,Conditions,WindDirDegrees,DateUTC
12:53 AM,33.1,32.0,96,30.15,10.0,Calm,Calm,-,N/A,,Overcast,0,2012-11-19 07:53:00
1:46 AM,32.0,30.2,93,30.17,10.0,NE,3.5,-,N/A,,Overcast,50,2012-11-19 08:46:00
1:53 AM,32.0,30.9,96,30.12,10.0,ENE,4.6,-,N/A,,Overcast,70,2012-11-19 08:53:00
2:53 AM,30.9,30.0,96,30.16,10.0,Calm,Calm,-,N/A,,Overcast,0,2012-11-19 09:53:00
3:53 AM,30.0,28.9,96,30.18,7.0,Calm,Calm,-,N/A,,Overcast,0,2012-11-19 10:53:00
4:53 AM,30.2,28.4,93,30.21,10.0,Calm,Calm,-,N/A,,Overcast,0,2012-11-19 11:53:00
5:53 AM,30.0,28.9,96,30.22,9.0,Calm,Calm,-,N/A,,Overcast,0,2012-11-19 12:53:00
6:37 AM,30.2,28.4,93,30.23,10.0,Calm,Calm,-,N/A,,Overcast,0,2012-11-19 13:37:00
6:53 AM,30.0,28.0,92,30.25,10.0,Calm,Calm,-,N/A,,Overcast,0,2012-11-19 13:53:00
7:53 AM,30.0,28.9,96,30.25,5.0,South,4.6,-,N/A,,Overcast,180,2012-11-19 14:53:00
7:56 AM,30.2,28.4,93,30.24,1.5,South,3.5,-,N/A,,Overcast,170,2012-11-19 14:56:00
8:04 AM,30.2,30.2,100,30.25,0.2,Calm,Calm,-,N/A,Fog,Light Freezing Fog,0,2012-11-19 15:04:00
8:53 AM,30.0,28.9,96,30.27,0.2,Calm,Calm,-,N/A,Fog,Light Freezing Fog,0,2012-11-19 15:53:00
9:53 AM,30.0,28.9,96,30.28,0.2,ESE,4.6,-,N/A,Fog,Light Freezing Fog,110,2012-11-19 16:53:00
10:24 AM,30.2,30.2,100,30.28,1.5,Calm,Calm,-,N/A,,Overcast,0,2012-11-19 17:24:00
10:33 AM,30.2,30.2,100,30.28,0.5,Calm,Calm,-,N/A,Fog,Light Freezing Fog,0,2012-11-19 17:33:00
10:45 AM,30.2,30.2,100,30.28,2.0,SE,3.5,-,N/A,,Overcast,130,2012-11-19 17:45:00
10:53 AM,30.9,30.0,96,30.29,5.0,SSE,3.5,-,N/A,,Overcast,160,2012-11-19 17:53:00
11:29 AM,32.0,30.2,93,30.28,2.5,Calm,Calm,-,N/A,,Overcast,0,2012-11-19 18:29:00
11:36 AM,32.0,30.2,93,30.28,6.0,Calm,Calm,-,N/A,,Overcast,0,2012-11-19 18:36:00
11:53 AM,32.0,32.0,100,30.28,10.0,Calm,Calm,-,N/A,,Overcast,0,2012-11-19 18:53:00
12:38 PM,35.6,33.8,93,30.26,10.0,NW,3.5,-,N/A,,Scattered Clouds,320,2012-11-19 19:38:00
12:53 PM,37.0,34.0,89,30.23,10.0,Calm,Calm,-,N/A,,Scattered Clouds,0,2012-11-19 19:53:00
1:06 PM,37.4,33.8,87,30.26,10.0,ESE,4.6,-,N/A,,Mostly Cloudy,120,2012-11-19 20:06:00
1:53 PM,39.0,34.0,82,30.22,10.0,Calm,Calm,-,N/A,,Overcast,0,2012-11-19 20:53:00
2:01 PM,39.2,33.8,81,30.26,10.0,Calm,Calm,-,N/A,,Overcast,0,2012-11-19 21:01:00
2:53 PM,41.0,34.0,76,30.22,10.0,Calm,Calm,-,N/A,,Scattered Clouds,0,2012-11-19 21:53:00
3:53 PM,39.0,33.1,79,30.23,10.0,WNW,4.6,-,N/A,,Clear,290,2012-11-19 22:53:00
4:53 PM,39.0,34.0,82,30.24,10.0,WNW,4.6,-,N/A,,Overcast,300,2012-11-19 23:53:00
5:53 PM,37.0,33.1,86,30.26,10.0,Calm,Calm,-,N/A,,Overcast,0,2012-11-20 00:53:00
6:53 PM,35.1,33.1,92,30.28,10.0,Calm,Calm,-,N/A,,Mostly Cloudy,0,2012-11-20 01:53:00
7:53 PM,32.0,30.9,96,30.29,10.0,ENE,4.6,-,N/A,,Partly Cloudy,60,2012-11-20 02:53:00
8:53 PM,30.9,28.9,92,30.30,10.0,NW,3.5,-,N/A,,Clear,320,2012-11-20 03:53:00
9:53 PM,30.0,27.0,88,30.31,10.0,Calm,Calm,-,N/A,,Clear,0,2012-11-20 04:53:00
10:53 PM,26.1,24.1,92,30.32,10.0,Calm,Calm,-,N/A,,Clear,0,2012-11-20 05:53:00
11:53 PM,27.0,24.1,89,30.32,10.0,North,5.8,-,N/A,,Clear,10,2012-11-20 06:53:00